Western Head, Nova Scotia

1:10 PM ADT on April 21, 2018 (GMT -0300)
Western Head

Weather History for CWWE - November, 2012

Change the Weather History Date:

Wednesday, November 21, 2012

  Actual Average Record
Temperature  
Mean Temperature 42 °F -  
Max Temperature 47 °F - - ()
Min Temperature 38 °F - - ()
Degree Days  
Heating Degree Days 22    
Moisture  
Dew Point 39 °F    
Average Humidity 82    
Maximum Humidity 97    
Minimum Humidity 62    
Precipitation  
Precipitation 0.08 in - - ()
Sea Level Pressure  
Sea Level Pressure 30.23 in    
Wind  
Wind Speed 7 mph ()    
Max Wind Speed 15 mph    
Max Gust Speed -    
T = Trace of Precipitation, MM = Missing Value Source: Averaged Metar Reports

Daily Weather History Graph

Daily Weather History Graph

Search for Another Location

Airport or City:

Astronomy

Nov. 21, 2012 Rise Set
Actual Time 7:21 AM AST 4:47 PM AST
Civil Twilight 6:50 AM AST 5:18 PM AST
Nautical Twilight 6:14 AM AST 5:54 PM AST
Astronomical Twilight 5:40 AM AST 6:28 PM AST
Moon 1:13 PM AST 12:23 AM AST
Length of Visible Light 10h 28m
Length of Day
9h 25m
First Quarter, 61% of the Moon is Illuminated
Nov 21
First Quarter
Nov 28
Full
Dec 6
Last Quarter
Dec 13
New
Dec 20
First Quarter

Hourly Weather History & Observations

Time (AST) Temp. Windchill Dew Point Humidity Pressure Visibility Wind Dir Wind Speed Gust Speed Precip Events Conditions
12:00 AM 39.2 °F 33.6 °F 35.8 °F 88% 30.18 in - North 8.1 mph - N/A   Unknown
1:00 AM 40.3 °F 34.9 °F 37.8 °F 91% 30.18 in - North 8.1 mph - N/A   Unknown
2:00 AM 40 °F - 37 °F 87% 30.18 in - North 8.1 mph - -  
2:00 AM 39.7 °F 34.3 °F 37.4 °F 91% 30.18 in - North 8.1 mph - N/A   Unknown
3:00 AM 40.8 °F 35.6 °F 39.0 °F 93% 30.18 in - North 8.1 mph - N/A   Unknown
4:00 AM 41.7 °F 36.7 °F 39.6 °F 92% 30.18 in - North 8.1 mph - N/A   Unknown
5:00 AM 41 °F - 39 °F 89% 30.19 in - North 9.2 mph - -  
5:00 AM 41.2 °F 35.5 °F 38.8 °F 91% 30.19 in - North 9.2 mph - N/A   Unknown
6:00 AM 40.6 °F 35.4 °F 38.8 °F 93% 30.20 in - North 8.1 mph - N/A   Unknown
7:00 AM 38.8 °F 32.1 °F 37.0 °F 93% 30.22 in - North 10.4 mph - N/A   Unknown
8:00 AM 39 °F - 36 °F 84% 30.24 in - North 8.1 mph - -  
8:00 AM 38.7 °F 32.9 °F 36.0 °F 90% 30.24 in - North 8.1 mph - N/A   Unknown
9:00 AM 41.0 °F 36.4 °F 36.3 °F 83% 30.26 in - North 6.9 mph - N/A   Unknown
10:00 AM 43.5 °F 39.4 °F 37.4 °F 79% 30.26 in - NNE 6.9 mph - N/A   Unknown
11:00 AM 45 °F - 37 °F 64% 30.25 in - NNE 6.9 mph - -  
11:00 AM 45.3 °F 41.6 °F 36.7 °F 72% 30.25 in - NNE 6.9 mph - N/A   Unknown
12:00 PM 47.5 °F - 37.6 °F 69% 30.24 in - North 5.8 mph - N/A   Unknown
1:00 PM 46.4 °F 44.3 °F 36.3 °F 68% 30.23 in - NE 4.6 mph - N/A   Unknown
2:00 PM 47 °F - 38 °F 62% 30.23 in - NNE 4.6 mph - -  
2:00 PM 47.5 °F - 38.1 °F 70% 30.23 in - NNE 4.6 mph - N/A   Unknown
3:00 PM 46.6 °F - 38.8 °F 74% 30.24 in - NNE 4.6 mph - N/A   Unknown
4:00 PM 46.8 °F - 39.7 °F 77% 30.25 in - NE 8.1 mph - N/A   Unknown
5:00 PM 45 °F - 39 °F 74% 30.24 in - North 5.8 mph - -  
5:00 PM 45.3 °F 42.3 °F 39.4 °F 80% 30.24 in - North 5.8 mph - N/A   Unknown
6:00 PM 45.0 °F 41.8 °F 43.5 °F 95% 30.24 in - NNE 5.8 mph - N/A   Unknown
7:00 PM 45.3 °F 42.3 °F 44.4 °F 97% 30.25 in - NNE 5.8 mph - 0.04 in   Unknown
8:00 PM 46 °F - 43 °F 84% 30.25 in - East 12.7 mph - -  
8:00 PM 45.7 °F 39.8 °F 42.8 °F 90% 30.25 in - East 12.7 mph - 0.02 in   Unknown
9:00 PM 46.2 °F 39.8 °F 41.5 °F 84% 30.26 in - East 15.0 mph - N/A   Unknown
10:00 PM 46.6 °F - 41.2 °F 81% 30.27 in - East 13.8 mph - N/A   Unknown
11:00 PM 46 °F - 40 °F 71% 30.26 in - East 15.0 mph - -  
11:00 PM 46.2 °F 39.8 °F 39.6 °F 78% 30.26 in - East 15.0 mph - N/A   Unknown